This is the latest recevied weather packets stored in our database for station/object DD5ZT-13. If no packets are shown the sender has not sent any weather packets the latest 10 day(s).
| Time | Temp. | Humidity | Pressure | Rain* | Wind** | Luminosity | Snow |
|---|---|---|---|---|---|---|---|
| 1778002684 | 18.33° C | 57% | 1011.8 hPa | 0 mm | - | - | - |
| 1778002667 | 18.33° C | 57% | 1011.8 hPa | 0 mm | - | - | - |
| 1778002059 | 17.78° C | 56% | 1011.8 hPa | 0 mm | - | - | - |
| 1778002042 | 17.78° C | 56% | 1011.8 hPa | 0 mm | - | - | - |
| 1778001459 | 17.22° C | 49% | 1011.8 hPa | 0 mm | - | - | - |
| 1778001417 | 17.22° C | 49% | 1011.8 hPa | 0 mm | - | - | - |
| 1778000859 | 17.78° C | 56% | 1012 hPa | 0 mm | - | - | - |
| 1778000791 | 17.78° C | 56% | 1012 hPa | 0 mm | - | - | - |
| 1778000240 | 17.78° C | 52% | 1011.9 hPa | 0 mm | - | - | - |
| 1777999059 | 17.78° C | 54% | 1012.1 hPa | 0 mm | - | - | - |
| 1777998916 | 17.78° C | 54% | 1012.1 hPa | 0 mm | - | - | - |
| 1777998291 | 17.78° C | 62% | 1012 hPa | 0 mm | - | - | - |
| 1777997784 | 18.33° C | 60% | 1012.1 hPa | 0 mm | - | - | - |
| 1777997666 | 18.33° C | 60% | 1012.1 hPa | 0 mm | - | - | - |
| 1777997040 | 17.78° C | 61% | 1012 hPa | 0 mm | - | - | - |
| 1777996416 | 18.33° C | 60% | 1012 hPa | 0 mm | - | - | - |
| 1777994559 | 17.78° C | 63% | 1012.1 hPa | 0 mm | - | - | - |
| 1777994540 | 17.78° C | 63% | 1012.1 hPa | 0 mm | - | - | - |
| 1777993290 | 17.78° C | 65% | 1012.3 hPa | 0 mm | - | - | - |
| 1777992759 | 18.33° C | 62% | 1012.4 hPa | 0 mm | - | - | - |
| 1777992665 | 18.33° C | 62% | 1012.4 hPa | 0 mm | - | - | - |
| 1777990789 | 18.89° C | 63% | 1012.6 hPa | 0 mm | - | - | - |
| 1777990164 | 18.33° C | 60% | 1012.6 hPa | 0 mm | - | - | - |
| 1777989539 | 19.44° C | 61% | 1012.6 hPa | 0 mm | - | - | - |
| 1777988914 | 18.89° C | 61% | 1012.7 hPa | 0 mm | - | - | - |
* Rain latest hour (hover to see other rain measurements)
** Current wind speed in m/s (hover to see current wind gust speed)